FLOCK 3P-23 (42018 NORAD) Tracking and Keplerian Element Data

This shows tracking and keplerian element data for the satellite.

Feedback or suggestion? Click here.




ElementValue
Catalog42018
NameFLOCK 3P-23
Epoch Orbit32529
Epoch Day359.12651358
Epoch Year2022
RAAN65.4048
Inclination97.2453
Eccentricity0.000547
Argument of Perigee277.2115
Mean Anonmoly82.8526
Mean Motion15.72582417
Decay Rate0.00380176
L11 42018U 17008BY 22359.12651358 .00380176 00000+0 27235-2 0 9998
L22 42018 97.2453 65.4048 0005470 277.2115 82.8526 15.72582417325299



Live tracking and technical data element details for FLOCK 3P-23 (NORAD 42018). FLOCK 3P-23 can be tracked NOW for your location showing map with azimuth and elevation plus other details from your city location.







IsCatalogInMostPopularTable: catalog: 42018, numindb: 659
Update: records affected: 1



GetName: 42018 FLOCK 3P-23

Hit Count: updated at: Mon, 17 Jun 2024 23:05:19 GMT